User: anonymous   Login
Location: Battersea Observatory
(44.4318°N, 76.3841°W)
Time: 19:54:45
(UTC-05:00)
Language:

Courier 1B Rocket - Orbit

View from above orbital plane
View from above orbital plane
View from above satellite
View from above satellite

Ground track
Ground track

The orbit data is extracted from the following two-line orbital elements,

1 00059U 60013B   22022.54058971  .00000092  00000-0  39530-5 0  9997
2 00059  28.2486  97.8471 0189122 148.5867 212.6127 13.52991612 25405
Epoch (UTC): 22 January 2022 12:58:26
Eccentricity: 0.0189122
inclination: 28.2486°
perigee height: 920 km
apogee height: 1202 km
right ascension of ascending node: 97.8471°
argument of perigee: 148.5867°
revolutions per day: 13.52991612
mean anomaly at epoch: 212.6127°
orbit number at epoch: 2540

The dashed part of the orbit path shows where the satellite is in the earth's shadow,  

DLR